Notices

What's New in latest Release from April 7th, 2021:

- Updated Glossary, including Speed of Maximum Gust, and Total Hourly Precipitation

- Updated national and regional climate services offices contacts and prices information

- Addition of station inventory lists for 1981-2010, 1971-2000, and 1961-1990 Normals.

If you haven't already, please take our survey and provide feedback about our website: https://eccc.sondage-survey.ca/f/LanguageSelection.aspx?s=442ca660-fcf1-47c0-95a9-59707d6fd709

Hourly Data Report for January 01, 2021

SHEARWATER RCS
NOVA SCOTIA
Current Station Operator: ECCC - MSC

44°37'47.000" N
63°30'48.000" W
24.00 m
8205092
71264
AAW

Download Data

Hourly Data (January 2021)
Hourly Data Report for January 1, 2021
TIME
LST
Temp Definition
°C
Dew Point Definition
°C
Rel Hum Definition
%
Precip. Amount Definition
mm

Wind Dir Definition
10's deg

Wind Spd Definition
km/h
Visibility Definition
km
Stn Press Definition
kPa
Hmdx Definition


Wind Chill Definition


Weather Definition


00:00 1.2 -4.1 68 0.0 31 16   101.56     LegendNANA
01:00 0.1 -6.4 62 0.0 31 20   101.66     LegendNANA
02:00 -0.5 -8.3 55 0.0 31 21   101.77   -6 LegendNANA
03:00 -1.0 -8.3 58 0.0 31 21   101.90   -7 LegendNANA
04:00 -1.7 -7.7 64 0.0 31 13   102.00   -6 LegendNANA
05:00 -1.7 -8.0 62 0.0 32 20   102.05   -7 LegendNANA
06:00 -1.9 -8.1 63 0.0 31 20   102.19   -8 LegendNANA
07:00 -2.5 -8.0 66 0.0 31 15   102.31   -7 LegendNANA
08:00 -2.9 -8.0 68 0.0 31 13   102.43   -8 LegendNANA
09:00 -2.2 -7.7 66 0.2 31 12   102.51   -6 LegendNANA
10:00 -1.7 -7.7 64 0.0 31 16   102.56   -7 LegendNANA
11:00 -0.6 -7.3 60 0.0 30 11   102.56   -4 LegendNANA
12:00 0.1 -7.4 57 0.0 31 12   102.54     LegendNANA
13:00 0.6 -8.9 49 0.0 30 12   102.44     LegendNANA
14:00 2.0 -8.8 44 0.0 26 10   102.45     LegendNANA
15:00 2.4 -7.5 48 0.0 25 12   102.49     LegendNANA
16:00 2.0 -6.9 52 0.0 24 12   102.51     LegendNANA
17:00 0.4 -6.2 61 0.0 23 9   102.51     LegendNANA
18:00 -0.3 -6.1 65 0.0 24 5   102.47   -2 LegendNANA
19:00 -0.5 -6.0 67 0.0 24 9   102.52   -4 LegendNANA
20:00 -0.4 -6.3 64 0.0 28 8   102.49   -3 LegendNANA
21:00 -1.2 -6.9 65 0.0 29 13   102.49   -5 LegendNANA
22:00 -1.7 -5.8 74 0.0 28 8   102.45   -5 LegendNANA
23:00 -2.3 -5.7 78 0.0 34 4   102.38   -4 LegendNANA

Notes on Data Quality.

Legend

  • E = Estimated
  • M = Missing
  • NA = Not Available*
  • [empty] = Indicates an unobserved value
Date modified: